TimeCST,TemperatureF,Dew PointF,Humidity,Sea Level PressureIn,VisibilityMPH,Wind Direction,Wind SpeedMPH,Gust SpeedMPH,PrecipitationIn,Events,Conditions,WindDirDegrees,DateUTC
12:15 AM,14.4,7.3,74,30.21,10.0,South,8.1,-,N/A,,Clear,170,2014-03-04 06:15:00
12:35 AM,14.2,7.7,75,30.20,10.0,South,6.9,-,N/A,,Clear,180,2014-03-04 06:35:00
12:55 AM,13.8,8.2,78,30.20,10.0,SSW,3.5,-,N/A,,Clear,210,2014-03-04 06:55:00
1:15 AM,14.9,9.0,77,30.19,10.0,South,6.9,-,N/A,,Clear,190,2014-03-04 07:15:00
1:35 AM,15.4,9.3,77,30.20,10.0,South,3.5,-,N/A,,Clear,190,2014-03-04 07:35:00
1:55 AM,15.1,10.0,80,30.19,10.0,South,5.8,-,N/A,,Clear,190,2014-03-04 07:55:00
2:15 AM,15.4,10.9,82,30.18,10.0,South,4.6,-,N/A,,Clear,170,2014-03-04 08:15:00
2:35 AM,15.6,11.8,85,30.18,10.0,South,5.8,-,N/A,,Clear,180,2014-03-04 08:35:00
2:55 AM,15.8,12.2,86,30.16,10.0,South,6.9,-,N/A,,Clear,190,2014-03-04 08:55:00
3:15 AM,15.8,13.1,89,30.16,10.0,SSW,5.8,-,N/A,,Clear,200,2014-03-04 09:15:00
3:35 AM,16.5,13.8,89,30.14,10.0,South,10.4,-,N/A,,Clear,190,2014-03-04 09:35:00
3:55 AM,16.7,14.2,90,30.14,10.0,SSW,6.9,-,N/A,,Clear,200,2014-03-04 09:55:00
4:15 AM,17.2,14.4,88,30.13,10.0,South,6.9,-,N/A,,Clear,190,2014-03-04 10:15:00
4:35 AM,16.5,14.0,90,30.12,10.0,South,5.8,-,N/A,,Clear,190,2014-03-04 10:35:00
4:55 AM,17.1,14.5,90,30.10,10.0,South,8.1,-,N/A,,Clear,180,2014-03-04 10:55:00
5:15 AM,17.1,14.7,91,30.10,10.0,South,6.9,-,N/A,,Clear,190,2014-03-04 11:15:00
5:35 AM,17.6,14.7,88,30.11,10.0,South,5.8,-,N/A,,Clear,190,2014-03-04 11:35:00
5:55 AM,17.6,14.9,89,30.11,10.0,South,4.6,-,N/A,,Clear,180,2014-03-04 11:55:00
6:15 AM,17.4,14.9,90,30.11,10.0,South,3.5,-,N/A,,Clear,170,2014-03-04 12:15:00
6:35 AM,17.1,14.4,89,30.11,10.0,Calm,Calm,-,N/A,,Clear,0,2014-03-04 12:35:00
6:55 AM,17.1,14.9,91,30.11,10.0,South,4.6,-,N/A,,Clear,180,2014-03-04 12:55:00
7:15 AM,18.0,15.6,91,30.10,10.0,SSE,8.1,-,N/A,,Clear,160,2014-03-04 13:15:00
7:35 AM,19.0,16.0,88,30.10,10.0,SSE,6.9,-,N/A,,Clear,150,2014-03-04 13:35:00
7:55 AM,18.5,15.8,89,30.11,10.0,SSE,8.1,-,N/A,,Clear,160,2014-03-04 13:55:00
8:15 AM,19.0,16.3,89,30.11,10.0,South,6.9,-,N/A,,Clear,180,2014-03-04 14:15:00
8:35 AM,20.1,17.1,88,30.11,10.0,South,8.1,-,N/A,,Clear,190,2014-03-04 14:35:00
8:55 AM,23.9,18.9,81,30.10,10.0,SSW,13.8,19.6,N/A,,Clear,200,2014-03-04 14:55:00
9:15 AM,24.6,19.0,79,30.09,10.0,South,17.3,-,N/A,,Clear,190,2014-03-04 15:15:00
9:35 AM,26.6,20.3,77,30.08,10.0,SSW,13.8,19.6,N/A,,Clear,200,2014-03-04 15:35:00
9:55 AM,28.0,21.2,76,30.08,10.0,SSW,12.7,-,N/A,,Clear,200,2014-03-04 15:55:00
10:15 AM,30.2,21.9,71,30.08,10.0,SSW,11.5,-,N/A,,Clear,200,2014-03-04 16:15:00
10:35 AM,31.5,23.0,71,30.08,10.0,South,13.8,-,N/A,,Clear,190,2014-03-04 16:35:00
10:55 AM,32.0,23.4,70,30.09,10.0,SSW,13.8,-,N/A,,Clear,200,2014-03-04 16:55:00
11:15 AM,33.3,23.9,69,30.07,10.0,South,15.0,-,N/A,,Clear,180,2014-03-04 17:15:00
11:35 AM,34.0,24.8,69,30.06,10.0,South,13.8,-,N/A,,Clear,180,2014-03-04 17:35:00
11:55 AM,35.2,25.7,68,30.05,10.0,South,13.8,-,N/A,,Clear,190,2014-03-04 17:55:00
12:15 PM,36.3,26.6,68,30.04,10.0,South,11.5,16.1,N/A,,Clear,180,2014-03-04 18:15:00
12:35 PM,38.5,28.2,67,30.03,10.0,South,11.5,16.1,N/A,,Clear,180,2014-03-04 18:35:00
12:55 PM,39.2,27.9,64,30.02,10.0,South,12.7,-,N/A,,Clear,180,2014-03-04 18:55:00
1:15 PM,41.0,28.2,60,30.02,10.0,South,15.0,18.4,N/A,,Clear,180,2014-03-04 19:15:00
1:35 PM,42.1,29.1,60,30.01,10.0,South,15.0,-,N/A,,Clear,190,2014-03-04 19:35:00
1:55 PM,43.7,30.2,59,29.99,10.0,South,13.8,17.3,N/A,,Clear,170,2014-03-04 19:55:00
2:15 PM,45.0,30.0,56,29.99,10.0,South,15.0,-,N/A,,Clear,190,2014-03-04 20:15:00
2:35 PM,46.8,31.1,55,29.98,10.0,South,10.4,-,N/A,,Clear,180,2014-03-04 20:35:00
2:55 PM,48.2,32.0,54,29.97,10.0,SSE,11.5,16.1,N/A,,Clear,160,2014-03-04 20:55:00
3:15 PM,48.4,31.8,53,29.96,10.0,South,10.4,-,N/A,,Clear,180,2014-03-04 21:15:00
3:35 PM,48.7,32.0,52,29.95,10.0,South,11.5,-,N/A,,Clear,180,2014-03-04 21:35:00
3:55 PM,49.1,32.0,52,29.95,10.0,South,9.2,-,N/A,,Clear,170,2014-03-04 21:55:00
4:15 PM,49.6,32.2,51,29.95,10.0,South,10.4,-,N/A,,Clear,170,2014-03-04 22:15:00
4:35 PM,49.1,32.2,52,29.94,10.0,SSE,11.5,-,N/A,,Clear,160,2014-03-04 22:35:00
4:55 PM,48.2,32.0,54,29.94,10.0,SSE,10.4,-,N/A,,Clear,150,2014-03-04 22:55:00
5:15 PM,47.7,32.0,55,29.93,10.0,SSE,12.7,17.3,N/A,,Clear,150,2014-03-04 23:15:00
5:35 PM,46.6,31.8,56,29.93,10.0,SSE,12.7,19.6,N/A,,Clear,160,2014-03-04 23:35:00
5:55 PM,45.9,32.0,58,29.94,10.0,South,8.1,-,N/A,,Clear,180,2014-03-04 23:55:00
6:15 PM,44.4,32.0,62,29.94,10.0,South,9.2,-,N/A,,Clear,170,2014-03-05 00:15:00
6:35 PM,43.9,32.0,63,29.95,10.0,SSE,6.9,-,N/A,,Clear,160,2014-03-05 00:35:00
6:55 PM,43.0,32.0,65,29.95,10.0,SSE,6.9,-,N/A,,Clear,160,2014-03-05 00:55:00
7:15 PM,41.4,31.6,68,29.96,10.0,South,4.6,-,N/A,,Clear,170,2014-03-05 01:15:00
7:35 PM,40.6,31.5,70,29.96,10.0,SSE,3.5,-,N/A,,Clear,160,2014-03-05 01:35:00
7:55 PM,39.4,30.7,71,29.97,10.0,Calm,Calm,-,N/A,,Clear,0,2014-03-05 01:55:00
8:15 PM,39.2,31.5,74,29.97,10.0,ESE,3.5,-,N/A,,Clear,120,2014-03-05 02:15:00
8:35 PM,36.3,31.3,82,29.97,10.0,SE,3.5,-,N/A,,Clear,130,2014-03-05 02:35:00
8:55 PM,37.4,31.3,79,29.97,10.0,SE,4.6,-,N/A,,Clear,140,2014-03-05 02:55:00
9:15 PM,36.7,30.9,80,29.97,10.0,SE,4.6,-,N/A,,Clear,130,2014-03-05 03:15:00
9:35 PM,36.3,30.7,80,29.97,10.0,SSE,5.8,-,N/A,,Clear,150,2014-03-05 03:35:00
9:55 PM,36.7,30.6,78,29.97,10.0,SE,6.9,-,N/A,,Clear,140,2014-03-05 03:55:00
10:15 PM,35.6,30.2,81,29.97,10.0,SSE,4.6,-,N/A,,Clear,150,2014-03-05 04:15:00
10:35 PM,35.4,30.2,81,29.97,10.0,SE,5.8,-,N/A,,Clear,140,2014-03-05 04:35:00
10:55 PM,35.4,30.2,81,29.96,10.0,SE,5.8,-,N/A,,Clear,140,2014-03-05 04:55:00
11:15 PM,35.1,29.8,81,29.97,10.0,SSE,4.6,-,N/A,,Clear,150,2014-03-05 05:15:00
11:35 PM,34.7,29.8,82,29.97,10.0,SSE,5.8,-,N/A,,Clear,150,2014-03-05 05:35:00